User: anonymous   Login
Location: Unspecified
(0.0000°N, 0.0000°E)
Time: 17:12:26
(UTC+02:00)
Language:

Centaur AC-64 - Orbit

View from above orbital plane
View from above orbital plane
View from above satellite
View from above satellite

Ground track
Ground track

The orbit data is extracted from the following two-line orbital elements,

1 15874U 85055B   15106.44541443  .00002782  00000-0  11380-2 0  9994
2 15874 022.9681 184.6509 6592573 126.9492 354.9654 03.16119434305239
Epoch (UTC): 16 April 2015 10:41:23
Eccentricity: 0.6592573
inclination: 22.9681°
perigee height: 304 km
apogee height: 26161 km
right ascension of ascending node: 184.6509°
argument of perigee: 126.9492°
revolutions per day: 3.16119434
mean anomaly at epoch: 354.9654°
orbit number at epoch: 30523

The dashed part of the orbit path shows where the satellite is in the earth's shadow,  

DLR